2025-007G

Last updated on Tue Jan 14 2025 00:02:05 GMT+0000 (Coordinated Universal Time)

1 62581U 25007G 25013.45888389 -.00000210 00000+0 00000+0 0 9992 2 62581 54.9746 126.8700 0011345 296.2208 157.2667 14.75359716 53
UTC large
Height (km)
Speed (km/s)
/
Latitude / Longitude
Inclination (degrees)
Orbital Period (minutes)
Azimuth
Elevation
Range (km)
Doppler Factor

Next 0 passes for location: London (51.5072 / 0.1276)

Sorry there are no passes over London.